Flag for U.S.A. Weather past 2 weeks in Provo, Utah, U.S.A.

Now
82 °F

Clear.


Feels Like: 81 °F
Forecast: 68 / 87 °F
Wind: 7 mph from Southeast

Location: Provo Municipal

Current Time: Jul 27, 2014 at 11:38:54 PM

Latest Report: Jul 27, 2014 at 11:15 PM


Visibility: 10 mi

Pressure: 30.16 "Hg

Humidity: 28%

Dew point: 46 °F

Location of ProvoLocation

Historic Weather in Provo — Graph

°F

Provo temperature yesterday

Maximum temperature yesterday: 91 °F (at 4:57 PM)
Minimum temperature yesterday: 64 °F (at 6:15 AM)
Average temperature yesterday: 75 °F

Past Weeks' High & Low Weather Summary

 TemperatureHumidityPressure
High100 °F (Jul 23, 4:47 PM)78% (Jul 16, 6:49 AM)30.27 "Hg (Jul 16, 6:49 AM)
Low61 °F (Jul 17, 3:55 AM)11% (Jul 22, 5:54 PM)29.93 "Hg (Jul 15, 6:50 PM)
Average76 °F41%30.08 "Hg
* Reported Jul 12 10:15 PM — Jul 27 10:35 PM, Provo, Weather by CustomWeather, © 2014

Note: Actual official high and low records may vary slightly from our data, if they occured in-between our weather recording intervals... More about our weather records

Advertising

Provo weather history for previous 24 hours

 ConditionsComfort  
Time TempWeatherWind HumidityBarometerVisibility
10:35 PM
Jul 27
79 °FClear.No wind39%30.16 "Hg10 mi
10:15 PM79 °FClear.3 mph39%30.16 "Hg10 mi
9:55 PM82 °FClear.3 mph35%30.15 "Hg10 mi
9:35 PM82 °FSunny.7 mph35%30.14 "Hg10 mi
8:55 PM84 °FSunny.9 mph27%30.12 "Hg10 mi
6:59 PM91 °FScattered clouds.9 mph26%30.11 "Hg15 mi
5:49 PM95 °FScattered clouds.8 mph18%30.12 "Hg15 mi
4:56 PM91 °FBroken clouds.17 mph20%30.13 "Hg15 mi
1:51 PM88 °FPartly sunny.7 mph25%30.18 "Hg15 mi
12:57 PM88 °FPartly sunny.5 mph27%30.20 "Hg15 mi
11:57 AM82 °FPartly sunny.No wind40%30.23 "Hg15 mi
10:47 AM79 °FScattered clouds.6 mph45%30.24 "Hg15 mi
9:49 AM79 °FScattered clouds.3 mph34%30.24 "Hg15 mi
8:54 AM73 °FScattered clouds.No wind44%30.23 "Hg15 mi
7:55 AM70 °FScattered clouds.No wind50%30.22 "Hg15 mi
6:52 AM64 °FPassing clouds.No wind64%30.21 "Hg15 mi
6:35 AM66 °FClear.3 mph56%30.20 "Hg10 mi
6:15 AM66 °FClear.3 mph52%30.19 "Hg10 mi
5:55 AM64 °FClear.No wind64%30.19 "Hg5 mi
5:35 AM68 °FClear.No wind53%30.19 "Hg10 mi
5:15 AM68 °FClear.No wind53%30.18 "Hg10 mi
4:55 AM66 °FClear.3 mph60%30.19 "Hg10 mi
4:35 AM68 °FClear.3 mph49%30.18 "Hg10 mi
4:15 AM70 °FClear.No wind46%30.18 "Hg10 mi
3:55 AM70 °FClear.No wind53%30.18 "Hg10 mi
3:35 AM70 °FClear.5 mph57%30.18 "Hg10 mi
3:15 AM70 °FClear.7 mph53%30.17 "Hg10 mi
2:55 AM70 °FClear.6 mph46%30.17 "Hg10 mi
2:35 AM72 °FClear.No wind50%30.17 "Hg10 mi
2:15 AM72 °FClear.No wind53%30.17 "Hg10 mi
1:55 AM73 °FClear.6 mph47%30.18 "Hg10 mi
1:35 AM75 °FClear.No wind44%30.18 "Hg10 mi
1:15 AM73 °FClear.No wind50%30.18 "Hg10 mi
12:55 AM73 °FClear.No wind47%30.18 "Hg10 mi
12:35 AM73 °FClear.No wind50%30.18 "Hg10 mi
12:15 AM75 °FClear.No wind44%30.17 "Hg10 mi
11:55 PM
Jul 26
75 °FClear.No wind44%30.17 "Hg10 mi
11:35 PM75 °FClear.No wind44%30.17 "Hg10 mi
11:15 PM79 °FClear.6 mph39%30.16 "Hg10 mi
Weather by CustomWeather, © 2014

See weather overviewHow to use our weather pages